Location: Dvur Kralove nad Labem
(50.4330°N, 15.8170°E)
Time: 08:32:24
(UTC+01:00)

ISS - Visible Passes

Search period start: 10 December 2018 00:00
Search period end: 20 December 2018 00:00
Orbit: 401 x 408 km, 51.6° (Epoch: 10 December)

Date Brightness Start Highest point End Pass type
(mag) Time Alt. Az. Time Alt. Az. Time Alt. Az.
10 Dec -2.7 17:30:28 10° W 17:33:35 42° SSW 17:36:17 13° SE visible
11 Dec -3.3 16:38:12 10° WNW 16:41:26 62° SSW 16:44:40 10° ESE visible
11 Dec -0.9 18:15:25 10° W 18:17:26 16° SW 18:19:28 10° S visible
12 Dec -1.5 17:22:43 10° W 17:25:25 24° SW 17:28:07 10° SSE visible
13 Dec -2.1 16:30:17 10° W 16:33:19 36° SSW 16:36:21 10° SE visible
14 Dec -0.6 17:15:28 10° WSW 17:17:05 13° SW 17:18:42 10° SSW visible
